Location: Unspecified
(0.0000°N, 0.0000°E)
Time: 23:53:38
(UTC+00:00)

STARLINK-34699 - Visible Passes

Search period start: 14 December 2025 00:00
Search period end: 24 December 2025 00:00
Orbit: 446 x 448 km, 53.2° (Epoch: 14 December)

Date Brightness Start Highest point End Pass type
(mag) Time Alt. Az. Time Alt. Az. Time Alt. Az.
14 Dec 5.2 19:09:06 10° SSE 19:11:03 17° SE 19:11:03 17° SE visible
15 Dec 5.6 18:32:31 10° SE 18:32:56 10° SE 18:33:22 10° ESE visible
15 Dec 6.0 20:06:59 10° WSW 20:08:10 17° WSW 20:08:10 17° WSW visible
16 Dec 3.9 19:28:00 10° SW 19:31:24 47° WNW 19:31:40 46° NW visible
17 Dec 3.1 18:49:12 10° SW 18:52:43 88° NW 18:55:07 19° NNE visible
20 Dec 5.5 05:12:49 10° N 05:15:33 21° NE 05:18:17 10° ESE visible
20 Dec 5.8 18:30:48 10° W 18:33:07 17° NW 18:35:26 10° NNW visible
21 Dec 6.0 04:34:54 10° NNE 04:36:32 13° NE 04:38:09 10° E visible
22 Dec 3.9 05:31:11 10° NW 05:34:27 37° SW 05:37:43 10° SSE visible
23 Dec 3.1 04:53:36 29° NW 04:55:15 70° SW 04:58:45 10° SSE visible
